Regional Weather Roundup
Issued by NWS

Home | Current Version | Previous Version | Text Only | Print | Product List | Glossary On
Versions: 1 2 3 4 5 6 7 8 9 10 11 12 13 14 15 16 17 18 19 20 21 22 23 24 25 26 27 28 29 30 31 32 33 34 35 36 37 38 39 40 41 42 43 44 45 46 47 48 49 50
000
ASUS43 KBIS 282010
RWRND

NORTH DAKOTA REGIONAL WEATHER ROUNDUP
NATIONAL WEATHER SERVICE BISMARCK ND
300 PM CDT SUN MAY 28 2017

NOTE: "FAIR" INDICATES FEW OR NO CLOUDS BELOW 12,000 FEET WITH NO
SIGNIFICANT WEATHER AND/OR OBSTRUCTIONS TO VISIBILITY.


NDZ001>003-009>011-017-282100-
NORTHWEST NORTH DAKOTA

CITY           SKY/WX    TMP DP  RH WIND       PRES   REMARKS
WILLISTON      FAIR      72  35  25 N23G35    29.99S
MINOT          PTSUNNY   68  40  35 NW31G44   29.87R
MINOT AFB      MOSUNNY   65  40  39 NW31G37   29.86R
$$

NDZ018>021-031>035-040>046-282100-
SOUTHWEST NORTH DAKOTA

CITY           SKY/WX    TMP DP  RH WIND       PRES   REMARKS
BISMARCK       PTSUNNY   70  40  33 N24G38    29.87S
DICKINSON      FAIR      71  24  17 NW35G44   29.93S
GARRISON         N/A     71  37  28 NW36G52   29.86S
HETTINGER ARPT TSTM      58  43  57 W14G44    29.97S
$$

NDZ004>008-012>016-024-026-027-054-282100-
NORTHEAST NORTH DAKOTA

CITY           SKY/WX    TMP DP  RH WIND       PRES   REMARKS
GRAND FORKS    CLOUDY    66  54  65 NW20      29.70F
GRND FRKS AFB  CLOUDY    63  49  59 N22G33    29.72F
DEVILS LAKE    LGT RAIN  56  49  77 N23G33    29.78R
$$

NDZ022-023-025-028>030-036>039-047>053-282100-
SOUTHEAST NORTH DAKOTA

CITY           SKY/WX    TMP DP  RH WIND       PRES   REMARKS
FARGO          PTSUNNY   71  41  33 W18G33    29.72F
JAMESTOWN      CLOUDY    58  45  62 NW40G49   29.80R
$$




USA.gov is the U.S. government's official web portal to all federal, state and local government web resources and services.